Location: Cosy Dell
(34.2789°N, 117.4537°W)
Time: 12:15:54
(UTC+00:00)

ADEOS II - Pass Details

Date: 14 July 2020
Orbit: 799 x 801 km, 98.5° (Epoch: 08 August)

Event Time Altitude Azimuth Distance (km) Brightness Sun altitude
Rises 11:25:46 0° 352° (N) 3,313 5.8 -15.1°
Reaches altitude 10° 11:28:56 10° 332° (NNW) 2,379 4.7 -14.6°
Maximum altitude 11:32:05 16° 295° (WNW) 1,966 3.9 -14.1°
Enters shadow 11:34:13 13° 268° (W) 2,160 3.9 -13.8°
